"Pseudo-MPEC" for P113o4U

Created 2020 Aug 6 7:07:11 UT using Find_Orb

Click here for an explanation of pseudo-MPECs

 
 Astrometry: 
     P113o4U  C2020 07 30=e7)y0n#D2BDf-Pm\M=W5xG7,1U_NtQ1t;Q_lM;6i'DsNZk8qZ6KF51
     P113o4U  C2020 07 30vO\XUgCO(#ZAo-\,P=P#kd$7Oq9GC5P#KbXl,at/Ao%NQe$Ho(:YF51
     P113o4U  C2020 07 30`+\5O\Ef#DO[6[CeDdZI9fhq4]y(=_3SN6(d5FQ8DN[;q_5Zc(FQF51
     P113o4U  C2020 07 31[5y=R9Q+AAg`Vg7I2qwG2HGq]'Zf(ff=!?Z-21l.RYncF_22VcYBF51
     P113o4U  C2020 07 311Zmnb(4DnaotA,-n:_'b'Gh:WQMyb.m1JuEni/8NPnZ7OQCkSJ9BF51
     P113o4U  C2020 07 31pslp6T=!$lr['MN1AcI]lZ]-^PO#GAstrometry#Iq9#h:'Z:SooF51
     P113o4U pC2020 08 014Bwy=:T,4D0Lt9)uRFU/4IjHC=g19deVYgredacted;0?jxcT%8mL01
     P113o4U KC2020 08 01.gd;4sJC;%;8B(J\F5l%clickVWyF/T4Twv@8d9b@\#EwphYt$ZcL01
     P113o4U KC2020 08 01J9?'8@7Ut%cP9p:#0WDFZCx*1W$i7g:Q-uCMfx!lRHUcY2@W3T1_L01
     P113o4U pC2020 08 01fBc/Z+Ie8ybeeaf1WrZhere2uwka=tK#_dC((R3V'KUijt*0,a)fL01
     P113o4U  C2020 08 01tX=?s4vn_SS$v5,NQ?^2D9Vh4:xt[:P9WI3ky[*Rh.($n1/goB1/F51
     P113o4U  C2020 08 01xSw8RKngex'vnA!)KTq4\O(m9pc[[L35#%A(t.GLiCN7dP@i^lW@F52
     P113o4U  C2020 08 01u:hfor4d+oE1\44b/p6=ba`7y$A?G%1%y-sgA]rk\)MqqiZg%x*hF52
     P113o4U  C2020 08 01:DY9HTXJYD)2+_LKA0yl[hMIH%-jsR#2TWE$jiaNcVT]ZDmYjN!qF51
     P113o4U  C2020 08 01Q#Q_mJkp7E'\$q%eNS)*a+AA)4TN=0En3PS'UxwlD%NPSAX`Jc!VF51
     P113o4U  C2020 08 01^C9swg6-g^u=8r6S42ljcy2A96^;FC^`p5'explanation`wnDr2F52

Station data:
(F51) Pan-STARRS 1, Haleakala  (N20.707235 W156.255910)  US/Hawaii.
   Observers N. Primak, A. Schultz, S. Watters, J. Thiel, T. Goggia. Measurer
   PS1 Science Consortium. 1.8-m Ritchey-Chrétien + CCD.
(F52) Pan-STARRS 2, Haleakala  (N20.707384 W156.255910)  US/Hawaii. 1.8-m
   Ritchey-Chrétien + CCD.
(L01) Višnjan Observatory, Tičan  (N45.290900 E13.749300)  Croatia.
   Observers K. Korlević, E. Pettarin. Measurer E. Pettarin. 1.0-m f/2.9
   reflector + CCD.

Orbital elements:  P113o4U
   Perihelion 2020 Oct 5.484600 +/- 4.42 TT = 11:37:49 (JD 2459127.984600)
Epoch 2020 Aug  1.0 TT = JDT 2459062.5   Earth MOID: 0.0984   Ve: 0.0461
M 321.91793066 +/- 11               (J2000 ecliptic)          AutoNEOCP
n   0.58154236 +/- 0.159            Peri.  196.60391 +/- 8
a   1.42150527 +/- 0.259            Node   251.14696 +/- 2.7
e   0.4642441 +/- 0.0761            Incl.    6.74169 +/- 0.19
P   1.69/619.03d           H 19.6   G  0.15   U 11.5  
q 0.76157975 +/- 0.0404    Q 2.08143079 +/- 0.647
From 16 observations 2020 July 30-Aug. 1; mean residual 0".19
Residuals in arcseconds: 
200730 F51  .13+  .12-    200801 L01  .09+  .15-    200801 F52  .17+  .04-    
200730 F51  .14-  .05+    200801 L01  .29-  .01-    200801 F51  .24+  .01+    
200730 F51  .08-  .02+    200801 L01  .67-  .32+    200801 F51  .12+  .14-    
200731 F51  .27+  .00     200801 L01  .19+  .02-    200801 F52  .24-  .07-    
200731 F51  .12+  .00     200801 F51  .25+  .01+    
200731 F51  .27+  .02+    200801 F52  .16-  .09+    

Ephemerides (geocentric):
Date (UTC) HH   RA              Dec         delta   r     elong  mag " sig PA
---- -- -- --  -------------   -----------  ------ ------ -----  --- ---- ---
2020 08 06 07  04 10 43.409   +28 46 23.18  .87813 1.0662  68.1 21.7 2.87  93
2020 08 06 08  04 10 58.665   +28 46 50.52  .87796 1.0658  68.1 21.7 2.95  93
2020 08 06 09  04 11 13.929   +28 47 17.76  .87778 1.0655  68.1 21.7 3.02  93
2020 08 06 10  04 11 29.201   +28 47 44.91  .87760 1.0652  68.1 21.7 3.10  93
2020 08 06 11  04 11 44.479   +28 48 11.96  .87743 1.0649  68.1 21.7 3.18  93
2020 08 06 12  04 11 59.765   +28 48 38.91  .87725 1.0646  68.1 21.7 3.26  93
2020 08 06 13  04 12 15.058   +28 49 05.76  .87708 1.0643  68.0 21.7 3.34  92
2020 08 06 14  04 12 30.358   +28 49 32.51  .87690 1.0640  68.0 21.7 3.42  92
2020 08 06 15  04 12 45.666   +28 49 59.16  .87673 1.0637  68.0 21.7 3.50  92
2020 08 06 16  04 13 00.981   +28 50 25.72  .87655 1.0633  68.0 21.7 3.59  92
2020 08 06 17  04 13 16.302   +28 50 52.17  .87638 1.0630  68.0 21.7 3.67  92
2020 08 06 18  04 13 31.631   +28 51 18.53  .87621 1.0627  68.0 21.7 3.76  92
2020 08 06 19  04 13 46.968   +28 51 44.78  .87604 1.0624  67.9 21.7 3.85  92
2020 08 06 20  04 14 02.311   +28 52 10.94  .87586 1.0621  67.9 21.7 3.94  92
2020 08 06 21  04 14 17.661   +28 52 36.99  .87569 1.0618  67.9 21.7 4.03  92
2020 08 06 22  04 14 33.019   +28 53 02.95  .87552 1.0615  67.9 21.7 4.12  92
2020 08 06 23  04 14 48.384   +28 53 28.80  .87535 1.0611  67.9 21.7 4.21  92
2020 08 07 00  04 15 03.756   +28 53 54.56  .87518 1.0608  67.9 21.7 4.30  92
2020 08 07 01  04 15 19.134   +28 54 20.21  .87501 1.0605  67.8 21.7 4.40  92
2020 08 07 02  04 15 34.520   +28 54 45.76  .87484 1.0602  67.8 21.7 4.50  92
2020 08 07 03  04 15 49.913   +28 55 11.22  .87467 1.0599  67.8 21.7 4.60  92
2020 08 07 04  04 16 05.314   +28 55 36.57  .87450 1.0596  67.8 21.7 4.70  92
2020 08 07 05  04 16 20.721   +28 56 01.82  .87434 1.0593  67.8 21.7 4.80  92
2020 08 07 06  04 16 36.135   +28 56 26.97  .87417 1.0590  67.8 21.7 4.90  91
2020 08 07 07  04 16 51.556   +28 56 52.01  .87400 1.0586  67.7 21.7 5.00  91
2020 08 07 08  04 17 06.984   +28 57 16.96  .87384 1.0583  67.7 21.7 5.11  91
2020 08 07 09  04 17 22.419   +28 57 41.80  .87367 1.0580  67.7 21.7 5.22  91
2020 08 07 10  04 17 37.861   +28 58 06.54  .87351 1.0577  67.7 21.7 5.32  91
2020 08 07 11  04 17 53.310   +28 58 31.18  .87334 1.0574  67.7 21.7 5.43  91
2020 08 07 12  04 18 08.766   +28 58 55.71  .87318 1.0571  67.7 21.7 5.54  91
2020 08 07 13  04 18 24.229   +28 59 20.15  .87301 1.0568  67.6 21.7 5.66  91
2020 08 07 14  04 18 39.699   +28 59 44.48  .87285 1.0565  67.6 21.6 5.77  91
2020 08 07 15  04 18 55.175   +29 00 08.70  .87268 1.0561  67.6 21.6 5.89  91
2020 08 07 16  04 19 10.659   +29 00 32.83  .87252 1.0558  67.6 21.6 6.00  91
2020 08 07 17  04 19 26.150   +29 00 56.85  .87236 1.0555  67.6 21.6 6.12  91
2020 08 07 18  04 19 41.647   +29 01 20.77  .87220 1.0552  67.5 21.6 6.24  91
2020 08 07 19  04 19 57.151   +29 01 44.58  .87204 1.0549  67.5 21.6 6.36  91
2020 08 07 20  04 20 12.662   +29 02 08.29  .87187 1.0546  67.5 21.6 6.49  91
2020 08 07 21  04 20 28.180   +29 02 31.90  .87171 1.0543  67.5 21.6 6.61  91
2020 08 07 22  04 20 43.704   +29 02 55.40  .87155 1.0539  67.5 21.6 6.74  91
2020 08 07 23  04 20 59.236   +29 03 18.80  .87139 1.0536  67.5 21.6 6.86  91
2020 08 08 00  04 21 14.774   +29 03 42.09  .87124 1.0533  67.4 21.6 6.99  91
2020 08 08 01  04 21 30.319   +29 04 05.28  .87108 1.0530  67.4 21.6 7.12  91
2020 08 08 02  04 21 45.871   +29 04 28.37  .87092 1.0527  67.4 21.6 7.26  91
2020 08 08 03  04 22 01.429   +29 04 51.35  .87076 1.0524  67.4 21.6 7.39  91
2020 08 08 04  04 22 16.994   +29 05 14.22  .87060 1.0521  67.4 21.6 7.52  91
2020 08 08 05  04 22 32.566   +29 05 36.99  .87045 1.0518  67.4 21.6 7.66  91
2020 08 08 06  04 22 48.145   +29 05 59.65  .87029 1.0514  67.3 21.6 7.80  91